sat.trackr.live / text

‹ back to catalog

GOES 16

NORAD 41866 · 2016-071A

PAYLOAD ACTIVE UNKNOWN

§ Identity

Operator
Country
US
Launch date
2016-11-19
Launch site
AFETR
Launch vehicle
Mass (kg)
RCS (m²)
13.16

Purposes: comms, earth_obs

External: N2YO · Heavens-Above · Gunter

§ Orbital elements

Epoch: 2026-09-20T03:57:02.723040Z

Period
1,436.10 min
Inclination
0.5680°
Eccentricity
0.0001683
Mean motion
1.00271879 rev/d
Perigee alt
35,779.5 km
Apogee alt
35,793.7 km
Semi-major
42,164.7 km
B*
0.0000e+0
RAAN
84.3084°
Arg perigee
128.1591°
Mean anomaly
101.1856°
Rev number
3,605

§ Raw data

GOES 161 41866U 16071A   26263.16461485 -.00000095  00000+0  00000+0 0  99972 41866   0.5680  84.3084 0001683 128.1591 101.1856  1.00271879 36059

JSON: /api/v1/satellites/41866 · /tle

For live sub-satellite position, see the globe view (requires WebGL).

§ Visibility from observer

Set your observer location to see the next 7 days of passes ≥ 10°. The values pass through the URL so the page stays shareable.

No JS? Fill the form by hand. The geolocation button needs JavaScript.

§ Radio — SatNOGS DB

ModeDescriptionDownlinkUplink
BPSK CDA (1693MHz) 1.693 GHz
FM GRB (1686.6MHz) 1.687 GHz
FM HRIT (1694.1MHz) 1.694 GHz
FM SARSAT - L-Band 1.545 GHz

4 transmitters · refreshed weekly from db.satnogs.org